Regional Weather Roundup
Issued by NWS

Home | Current Version | Previous Version | Graphics & Text | Print | Product List | Glossary On
Versions: 1 2 3 4 5 6 7 8 9 10 11 12 13 14 15 16 17 18 19 20 21 22 23 24 25 26 27
000
ASUS43 KDMX 150507
RWRIA

WEATHER ROUNDUP FOR IOWA
NATIONAL WEATHER SERVICE DES MOINES IA
1200 AM CDT TUE APR 15 2014

NOTE: "FAIR" INDICATES FEW OR NO CLOUDS BELOW 12,000 FEET WITH NO
SIGNIFICANT WEATHER AND/OR OBSTRUCTIONS TO VISIBILITY.

* - THESE STATIONS ARE NOT NWS STATIONS...THUS NOT UNDER NWS
QUALITY CONTROL.  THEY ALSO DO NOT REPORT WEATHER SUCH
AS PRECIPITATION OR FOG.

IAZ001>003-012>014-020>022-031>034-043>046-150600-
   NORTHWEST IOWA

CITY           SKY/WX    TMP DP  RH WIND       PRES   REMARKS
CARROLL *      PTCLDY    27  23  86 NW5       30.15S WCI  21
CHEROKEE *     CLEAR     27  18  70 N5        30.16S WCI  21
DENISON *      CLEAR     27  23  86 CALM      30.15S
LE MARS *      MOCLDY    27  18  69 N6        30.19R WCI  20
ORANGE CITY *  PTCLDY    27  18  69 N6        30.16S WCI  20
SHELDON *      CLOUDY    21  16  79 N5        30.16R WCI  15
SIOUX CITY     CLEAR     26  17  68 NW5       30.19R WCI  20
SPENCER        CLEAR     24  18  77 N10       30.15S WCI  14
STORM LAKE *   CLEAR     25  19  80 N8        30.15S WCI  16
$$

IAZ055>058-069>071-079>083-090>094-150600-
   SOUTHWEST IOWA

CITY           SKY/WX    TMP DP  RH WIND       PRES   REMARKS
ATLANTIC *     CLOUDY    30  23  74 CALM      30.16S
AUDUBON *      CLEAR     25  18  74 CALM      30.15S
CLARINDA *     PTCLDY    28  27  93 CALM      30.19R
COUNCIL BLFS * CLOUDY    32  23  69 N5        30.16R WCI  27
CRESTON *      CLEAR     28  19  69 N6        30.15S WCI  22
HARLAN  *      PTCLDY    30  23  74 N3        30.20R
LAMONI         CLEAR     29  21  72 NW6       30.15R WCI  23
RED OAK *      PTCLDY    30  25  80 CALM      30.17S
SHENANDOAH *   PTCLDY    28  25  86 CALM      30.19R
$$

IAZ047>049-059>061-072>074-084-150600-
   CENTRAL IOWA

CITY           SKY/WX    TMP DP  RH WIND       PRES   REMARKS
AMES           CLEAR     28  17  63 NW7       30.14S WCI  21
ANKENY *       CLEAR     30  18  59 NW6       30.15R WCI  24
CHARITON *     CLEAR     30  21  69 NW7       30.15R WCI  23
DES MOINES     CLEAR     32  16  51 N5        30.15S WCI  27
GRINNELL*      CLEAR     29  20  70 NW8       30.12S WCI  21
KNOXVILLE *    CLEAR     30  18  59 NW7       30.14S WCI  23
MARSHALLTOWN   CLEAR     28  19  69 NW8       30.11S WCI  20
NEWTON *       CLEAR     28  18  64 NW8       30.14S WCI  20
PELLA *        CLEAR     28  20  71 NW6       30.15R WCI  22
PERRY *          N/A     30  23  76 NW5       30.15S WCI  25
$$

IAZ004>006-015-016-023>025-035-036-150600-
   NORTH CENTRAL IOWA

CITY           SKY/WX    TMP DP  RH WIND       PRES   REMARKS
ALGONA *       CLEAR     27  19  74 NW8       30.14S WCI  18
CLARION *      PTCLDY    27  19  74 NW8       30.13R WCI  18
ESTHERVILLE    CLEAR     23  19  85 NW8       30.13S WCI  14
FORT DODGE *   CLEAR     27  18  69 CALM      30.15R
MASON CITY     CLEAR     25  16  68 NW9       30.12S WCI  15
FOREST CITY *    N/A     28  19  69 NW6       30.11R WCI  22
IOWA FALLS *     N/A     28  19  69 NW7       30.12S WCI  21
$$

IAZ007>011-017>019-026>030-037>042-050>054-066-150600-
   NORTHEAST IOWA

CITY           SKY/WX    TMP DP  RH WIND       PRES   REMARKS
CEDAR RAPIDS   CLEAR     29  19  66 NW10      30.08S WCI  20
CHARLES CITY * CLEAR     28  18  64 NW7       30.09S WCI  21
CLINTON *      CLEAR     28  21  74 NW9       30.08S WCI  20
DECORAH *      MOCLDY    27  14  59 CALM      30.05S
DUBUQUE        CLEAR     25  18  74 NW7       30.04S WCI  17
MONTICELLO *   MOCLDY    28  21  74 NW8       30.07S WCI  20
OELWEIN *      CLEAR    N/A N/A N/A NW12      30.08S
WATERLOO       CLEAR     27  16  63 NW8       30.10S WCI  19
$$

IAZ064-065-067-068-078-150600-
   EAST CENTRAL IOWA

CITY           SKY/WX    TMP DP  RH WIND       PRES   REMARKS
DAVENPORT      CLEAR     30  23  75 NW10      30.07R WCI  21
IOWA CITY      CLEAR     30  20  66 NW8       30.11S WCI  22
MT. PLEASANT * CLEAR     32  19  59 NW7       30.11S WCI  26
MUSCATINE *    CLEAR     30  21  69 NW8       30.10S WCI  23
QUAD CITIES    CLEAR     31  21  66 NW10      30.07R WCI  22
$$

IAZ062-063-075>077-085>089-095>099-150600-
   SOUTHEAST IOWA

CITY           SKY/WX    TMP DP  RH WIND       PRES   REMARKS
BURLINGTON     CLEAR     31  22  69 NW7       30.09S WCI  24
FAIRFIELD *    CLEAR     30  21  69 NW12      30.12S WCI  21
FORT MADISON * CLEAR     30  25  80 NW9       30.11S WCI  22
KEOKUK *       CLEAR     32  21  64 NW8G15    30.11R WCI  25
OSKALOOSA *      N/A     30  23  74 NW7       30.13S WCI  23
CENTERVILLE *    N/A     28  23  80 NW6       30.15S WCI  22
OTTUMWA        CLEAR     28  20  71 NW9       30.13R WCI  19
WASHINGTON *   CLEAR     30  21  69 NW9       30.11S WCI  22
$$

ABBREVIATIONS USED IN REMARKS
   TC - TEMPERATURES IN CELSIUS
  WCI - WIND CHILL INDEX
   HX - HEAT INDEX
  VSB - VISIBILITY
$$




USA.gov is the U.S. government's official web portal to all federal, state and local government web resources and services.